Regional Weather Roundup
Issued by NWS Kansas City/Pleasant Hill, MO

Home | Current Version | Previous Version | Graphics & Text | Print | Product List | Glossary Off
Versions: 1 2 3 4 5 6 7 8 9 10 11 12 13 14 15 16 17 18 19 20 21 22 23 24 25 26 27 28 29 30 31 32 33 34 35 36 37 38 39 40 41 42 43 44 45 46 47 48 49 50

000
ASUS43 KEAX 300504
RWREAX

WEATHER ROUNDUP FOR EASTERN KANSAS AND NORTHWEST MISSOURI
NATIONAL WEATHER SERVICE KANSAS CITY/PLEASANT HILL MO
1200 AM CDT THU OCT 30 2014

KSZ040-057-103>105-MOZ028-029-037-043-300600-
...KANSAS CITY METROPOLITAN AREA...

CITY           SKY/WX    TMP DP  RH WIND       PRES   REMARKS
K.C. INTL      CLEAR     44  35  70 SE9       30.09F
K.C. DOWNTOWN  CLEAR     50  34  54 CALM      30.10S
LEES SUMMIT    CLEAR     49  33  54 SE6       30.11S
OLATHE - IXD   CLEAR     48  35  60 SE8       30.10F
OLATHE - OJC   CLEAR     46  35  65 S7        30.09F
LAWRENCE       CLEAR     43  37  79 E7        30.09F

$$

MOZ001>008-011>017-020>025-030>033-038>040-044>046-053-054-300600-
...NORTHERN AND CENTRAL MISSOURI...

CITY           SKY/WX    TMP DP  RH WIND       PRES   REMARKS
ST. JOSEPH     CLEAR     41  35  79 S3        30.08F
MOSBY          CLEAR     39  36  87 CALM      30.11S
WHITEMAN AFB   CLEAR     42  34  74 SE3       30.12F
CLINTON        CLEAR     46  39  76 CALM      30.13F HAZE
SEDALIA        CLEAR     44  34  67 SE5       30.14F
WARSAW         NOT AVBL
MARSHALL       CLEAR     45  36  70 SE5       30.14F
CHILLICOTHE      N/A     42  36  79 CALM      30.13F
MOBERLY        CLEAR     39  32  75 SE5       30.16S
KIRKSVILLE     CLEAR     39  33  79 SE6       30.14F WCI  35

$$

MOZ041-047>049-056>058-063>065-088>090-097-300600-
...EASTERN AND SOUTHERN MISSOURI...

CITY           SKY/WX    TMP DP  RH WIND       PRES   REMARKS
ST. LOUIS INTL CLEAR     44  37  76 CALM      30.17S
SPIRIT OF STL  CLEAR     37  35  92 CALM      30.17S
COLUMBIA       CLEAR     45  33  63 E6        30.15F
JEFFERSON CITY CLEAR     38  34  85 CALM      30.16S
MEXICO         CLEAR    N/A N/A N/A CALM      30.15F
ROLLA          CLEAR     38  31  76 CALM      30.15S
LEBANON        CLEAR     43  34  70 SE3       30.15F
OSAGE BEACH    CLEAR     39  32  75 CALM      30.15F
SPRINGFIELD    CLEAR     44  37  76 SE7       30.14F
NEVADA         CLEAR     45  37  76 SE6       30.13F
JOPLIN         CLEAR     47  38  71 S7        30.14S
WEST PLAINS    CLEAR     41  34  76 CALM      30.17F

$$

IAZ060-094-KSZ022-034>040-054-083-096-NEZ052-066-093-300600-
...KANSAS...SOUTHEAST NEBRASKA AND IOWA...

CITY           SKY/WX    TMP DP  RH WIND       PRES   REMARKS
TOPEKA         PTCLDY    49  38  65 E5        30.07F
MANHATTAN      CLEAR     47  38  71 CALM      30.04F
EMPORIA        CLEAR     47  39  74 S9        30.07F
CHANUTE        CLEAR     45  39  79 S9        30.11S
WICHITA        CLEAR     52  34  50 S10       30.07F
OMAHA          PTCLDY    44  31  60 SE7       30.07F
LINCOLN        CLEAR     44  33  65 CALM      30.03F
FALLS CITY     PTCLDY    43  35  73 SE6       30.04F
LAMONI         CLEAR     44  33  65 SE7       30.10F
DES MOINES     MOCLDY    45  33  63 SE6       30.11F

$$




USA.gov is the U.S. government's official web portal to all federal, state and local government web resources and services.